Date,TemperatureHighF,TemperatureAvgF,TemperatureLowF,DewpointHighF,DewpointAvgF,DewpointLowF,HumidityHigh,HumidityAvg,HumidityLow,PressureMaxIn,PressureMinIn,WindSpeedMaxMPH,WindSpeedAvgMPH,GustSpeedMaxMPH,PrecipitationSumIn
2013-1-1,39,35,32,30,28,26,85,77,67,30.01,29.89,14,1,14,0.14
2013-1-2,32,28,23,28,20,13,85,72,58,30.22,29.98,9,0,9,0.00
2013-1-3,33,27,21,23,17,12,76,67,54,30.24,30.13,20,0,20,0.00
2013-1-4,33,29,27,24,21,19,76,72,66,30.23,30.16,23,2,23,0.01
2013-1-5,39,32,24,26,22,18,83,65,48,30.36,30.13,16,0,16,0.02
2013-1-6,39,35,34,30,26,23,81,69,61,30.16,29.99,12,0,12,0.12
2013-1-7,35,32,28,30,26,23,86,78,69,30.44,30.15,14,0,14,0.01
2013-1-8,47,37,29,31,28,24,86,68,49,30.40,30.29,14,1,14,0.02
2013-1-9,54,43,35,46,36,27,83,74,64,30.41,30.21,16,1,16,0.00
2013-1-10,50,42,36,34,30,27,74,65,47,30.58,30.39,10,0,10,0.00
2013-1-11,47,43,38,45,36,29,94,79,62,30.40,30.04,14,0,14,0.13
2013-1-12,63,49,37,56,46,35,100,90,74,30.12,29.99,8,0,8,0.00
2013-1-13,67,58,49,56,52,47,96,82,63,30.00,29.84,15,1,15,0.00
2013-1-14,62,47,33,56,42,31,94,84,73,30.29,29.84,21,2,21,0.44
2013-1-15,35,33,32,34,32,30,95,94,92,30.33,30.10,9,0,9,0.86
2013-1-16,42,34,32,41,33,30,100,96,95,30.11,29.77,20,1,20,0.38
2013-1-17,37,34,32,36,29,25,96,82,72,30.12,29.98,12,1,12,0.00
2013-1-18,34,30,23,25,17,12,78,60,44,30.49,30.11,21,1,21,0.00
2013-1-19,51,42,33,28,23,17,63,48,34,30.32,29.84,19,2,23,0.00
2013-1-20,47,40,29,31,22,11,63,48,32,30.04,29.78,26,2,26,0.00
2013-1-21,39,29,20,18,14,9,69,53,37,30.04,29.78,27,1,27,0.00
2013-1-22,20,12,8,10,-1,-4,65,55,47,30.31,29.97,20,1,20,0.00
2013-1-23,20,14,9,12,2,-2,82,58,43,30.36,30.10,15,1,15,0.00
2013-1-24,20,15,11,12,8,2,87,74,55,30.58,30.06,18,0,18,0.00
2013-1-25,20,14,10,16,8,2,90,76,67,30.55,30.06,7,0,7,0.00
2013-1-26,30,25,19,24,20,16,92,81,75,30.45,30.06,12,0,12,0.03
2013-1-27,34,26,19,22,17,12,78,70,58,30.58,30.40,9,0,9,0.05
2013-1-28,51,39,28,48,36,21,94,89,75,30.42,30.04,15,1,15,0.30
2013-1-29,66,57,50,56,51,48,96,82,68,30.07,29.84,16,1,16,0.02
2013-1-30,69,58,51,60,53,48,95,84,70,29.84,29.19,29,2,29,1.51
2013-1-31,51,32,24,50,25,15,95,77,65,29.87,29.13,29,3,29,0.06